Regional Weather Roundup
Issued by NWS

Home | Current Version | Previous Version | Graphics & Text | Print | Product List | Glossary On
Versions: 1 2 3 4 5 6 7 8 9 10 11 12 13 14 15 16 17 18 19 20 21 22 23 24 25 26 27 28 29 30 31 32 33 34 35 36 37 38 39 40 41 42 43 44 45 46 47 48 49 50
000
ASUS43 KBIS 251931
RWRND
NORTH DAKOTA REGIONAL WEATHER ROUNDUP
NATIONAL WEATHER SERVICE EASTERN NORTH DAKOTA/GRAND FORKS ND
200 PM CDT WED APR 25 2018

  NOTE: "FAIR" INDICATES FEW OR NO CLOUDS BELOW 12,000 FEET WITH NO
  SIGNIFICANT WEATHER AND/OR OBSTRUCTIONS TO VISIBILITY.

NDZ001>003-009>011-017-252000-
...NORTHWEST NORTH DAKOTA...

CITY           SKY/WX    TMP DP  RH WIND       PRES   REMARKS
WILLISTON      FAIR      63  32  31 SW17      29.87F
MINOT          FAIR      66  28  24 S26G33    29.84F
MINOT AFB      FAIR      64  30  27 SW22G33   29.82F
$$

NDZ018>021-031>035-040>046-252000-
...SOUTHWEST NORTH DAKOTA...

CITY           SKY/WX    TMP DP  RH WIND       PRES   REMARKS
BISMARCK       FAIR      63  26  24 SW20      29.98F
DICKINSON      FAIR      65  22  19 SW21G32   29.93F
GARRISON         N/A     63  27  25 SW18G26   29.90F
HETTINGER      FAIR      63  23  21 SW15G24   30.00F
$$

NDZ004>008-012>016-024-026-027-054-252000-
...NORTHEAST NORTH DAKOTA...

CITY           SKY/WX    TMP DP  RH WIND       PRES   REMARKS
GRAND FORKS    PTSUNNY   63  38  39 SW24G33   29.98F
GRAND FORKS AF PTSUNNY   64  31  29 SW22G30   29.97F
DEVILS LAKE    FAIR      56  29  35 SW17      29.93F
$$

NDZ022-023-025-028>030-036>039-047>053-252000-
...SOUTHEAST NORTH DAKOTA...

CITY           SKY/WX    TMP DP  RH WIND       PRES   REMARKS
JAMESTOWN      FAIR      63  27  25 SW22G31   30.00F
FARGO          FAIR      63  29  27 SW16      30.05F
WAHPETON       FAIR      59  30  33 S13       30.09F
$$



USA.gov is the U.S. government's official web portal to all federal, state and local government web resources and services.